Temperature
10 10 10 10 10 10 11 11 11 11 11 11 11 11 11 11 11 11 11 11 11 11 11 11 11 11 11 12 12 11 11 11 11 11 11 11 12 12 12 12 12 12 12
10 9 9 9 9 10 10 10 10 10 10 10 10 11 11 11 11 11 11 11 11 11 11 11 11 11 11 11 11 11 11 11 11 11 10 11 11 11 11 11 11 11 11
10 9 9 9 9 9 9 10 10 10 10 10 10 10 10 10 10 10 11 11 11 11 11 11 11 11 11 11 11 11 11 10 10 10 10 10 11 10 11 11 11 11 11
9 9 9 9 9 9 9 9 9 9 9 9 9 9 9 9 10 10 10 10 10 10 10 10 10 10 10 10 10 10 10 10 10 10 10 10 10 9 10 10 10 10 10
9 9 9 9 8 9 9 9 9 9 9 9 9 9 9 9 9 9 9 10 10 10 10 10 10 10 10 10 10 10 10 10 10 10 10 9 9 9 9 9 9 9 10
9 9 8 8 8 8 8 8 8 8 8 8 9 8 8 9 9 9 9 9 9 9 9 9 9 9 9 10 10 10 10 9 9 9 9 9 9 9 9 8 8 8 9
9 8 8 8 8 8 8 8 8 8 8 8 8 8 8 8 8 8 8 8 8 9 9 9 9 9 9 9 9 9 9 9 9 9 9 9 9 9 8 8 8 8 8
8 8 8 8 8 8 8 8 8 8 8 8 8 8 8 8 8 8 8 8 8 8 8 8 8 9 9 9 9 9 9 9 8 8 8 8 8 8 8 8 7 7 7
8 8 8 8 8 8 8 8 8 7 7 7 7 7 7 7 7 7 7 7 7 8 8 8 8 8 8 8 8 8 8 8 8 8 8 8 8 8 7 7 7 6 6
8 8 8 8 8 8 8 8 7 7 7 7 7 7 7 7 7 7 7 7 7 7 7 7 7 7 8 8 8 8 8 8 7 7 7 7 7 7 7 7 6 6 5
8 8 8 8 8 8 7 7 7 7 7 7 7 7 6 6 6 7 7 6 7 7 7 7 7 7 7 7 7 7 7 7 7 7 7 7 7 6 6 6 6 6 5
8 8 8 8 8 7 7 7 7 7 7 7 6 6 6 6 6 6 6 6 6 7 7 7 7 7 7 7 7 7 7 7 7 6 6 6 6 6 6 6 6 5 5
8 8 7 7 7 7 7 7 7 7 7 6 6 6 6 6 6 6 6 6 6 6 6 6 6 6 6 6 6 6 6 6 6 6 6 6 6 6 5 5 5 5 5
7 7 7 7 7 7 7 7 7 7 6 6 6 6 6 6 6 6 6 6 6 6 6 6 6 6 6 6 6 6 6 6 6 6 6 5 5 5 5 5 5 4 4
7 7 7 7 7 7 7 7 7 7 6 6 6 6 6 6 6 5 6 5 5 6 5 5 5 5 5 5 5 5 5 5 5 5 5 5 5 5 5 4 4 4 3
7 7 7 7 7 7 7 7 7 6 6 6 6 6 6 5 5 5 5 5 5 5 5 5 5 5 5 5 5 5 5 4 4 4 4 4 4 4 4 4 3 3 3
7 7 7 7 7 7 7 7 7 6 6 6 6 6 6 5 5 5 5 5 5 5 5 5 5 4 4 4 4 4 4 4 4 4 4 4 4 3 3 3 3 3 3
7 7 7 7 7 7 7 7 6 6 6 6 6 6 6 5 5 5 5 5 5 5 4 4 4 4 4 4 4 4 4 4 3 3 3 3 3 3 3 3 2 2 2
6 6 7 7 7 7 7 6 6 6 6 6 6 6 6 5 5 5 5 5 4 4 4 4 4 3 3 3 3 3 3 3 3 3 3 3 3 3 2 2 2 2 2
6 6 6 6 6 6 6 6 6 6 6 6 6 5 5 5 5 5 5 4 4 4 3 3 3 3 3 3 3 3 3 3 3 3 2 2 2 2 2 1 1 1 1
6 6 6 6 6 6 6 6 6 6 6 6 5 5 5 5 5 4 4 4 4 3 3 3 3 3 3 3 3 3 2 2 2 2 2 2 2 1 1 1 1 1 0
5 5 5 5 6 5 5 5 6 6 5 5 5 5 5 5 4 4 4 4 3 3 3 2 2 2 2 2 2 2 2 2 2 2 2 1 1 1 1 1 0 0 -0
5 5 5 5 5 5 5 5 5 5 5 5 5 4 4 4 4 4 3 3 3 3 3 2 2 2 2 2 2 2 1 1 1 1 1 1 1 1 0 0 -0 -0 -1
4 4 4 4 5 5 5 5 5 5 4 4 4 4 4 4 4 3 3 3 3 3 2 2 2 2 2 1 1 1 1 1 1 1 1 0 0 -0 -0 -1 -1 -1 -1
4 4 4 4 4 4 4 4 4 4 4 4 4 4 4 4 3 3 3 3 3 3 2 2 2 2 1 1 1 1 1 1 0 0 0 -0 -0 -0 -1 -1 -1 -1 -1
3 3 3 3 4 4 4 4 4 4 4 4 4 3 3 3 3 3 3 3 2 2 2 2 2 1 1 1 1 1 0 0 0 -0 -0 -0 -1 -1 -1 -1 -1 -2 -2
Wind_Speed
6 4 4 4 4 3 3 3 3 2 2 2 2 2 3 3 3 3 4 5 5 5 5 5 5 6 6 6 7 5 5 4 3 3 4 4 6 7 6 6 6 6 6
5 5 5 5 5 4 3 3 3 3 3 2 3 3 3 3 3 3 3 4 5 5 5 5 5 6 6 7 7 6 4 4 4 4 3 3 5 5 6 6 5 6 5
7 5 5 5 5 5 4 3 4 4 3 3 2 2 2 3 3 3 3 3 4 4 5 5 5 5 6 6 7 7 7 6 5 4 4 3 4 2 3 5 5 5 4
6 6 5 6 5 5 4 4 4 4 4 3 3 4 4 4 4 4 4 3 4 4 4 4 4 5 5 5 6 6 6 7 6 5 4 4 2 3 3 3 4 5 5
6 6 6 6 5 5 4 4 4 4 4 4 4 4 5 5 4 4 5 4 3 3 3 4 4 4 4 5 5 5 6 6 7 5 4 4 4 5 4 5 5 5 5
5 5 5 5 5 4 4 5 5 5 4 4 4 5 6 6 6 6 5 4 3 3 4 4 4 5 5 5 6 6 7 6 7 6 5 5 4 5 5 5 5 5 4
4 5 5 5 5 5 5 5 6 5 5 5 5 6 6 7 7 6 6 5 4 4 4 4 5 5 5 5 5 6 6 7 7 7 6 5 5 4 4 5 5 4 4
4 5 5 5 5 5 5 5 6 5 5 5 6 6 6 5 5 6 6 6 5 5 5 5 5 5 5 4 5 5 5 5 6 6 6 5 5 4 4 4 4 4 4
5 6 6 6 6 6 6 6 6 6 6 6 6 6 6 6 6 6 6 5 5 5 5 5 5 5 4 4 4 4 4 4 5 5 5 5 4 4 4 3 4 4 4
6 6 6 7 7 6 6 6 7 7 6 6 6 5 6 6 6 5 6 6 6 5 5 5 5 4 4 4 4 3 4 4 4 3 4 4 3 3 3 3 4 4 5
8 7 7 7 7 6 6 6 6 7 6 6 6 6 6 6 6 6 6 6 5 5 5 5 5 5 4 4 4 4 4 4 4 3 4 3 3 2 2 2 3 3 4
8 8 7 7 7 7 7 7 7 7 7 6 6 6 6 6 6 6 6 5 5 4 4 4 4 4 4 5 5 4 4 4 4 4 3 3 2 3 2 2 3 3 4
9 8 7 7 7 7 7 7 7 7 7 6 6 6 6 6 6 6 5 5 5 4 4 4 4 4 4 4 4 5 4 4 4 4 4 4 4 3 3 3 3 3 3
9 8 8 7 7 8 8 7 8 7 6 6 6 7 6 6 5 5 5 5 4 4 4 4 4 4 4 4 4 4 4 3 3 4 4 4 4 4 3 3 3 3 4
10 9 8 8 8 8 8 8 8 7 7 7 7 7 6 5 5 5 5 5 4 4 4 4 3 3 3 3 4 4 4 4 3 3 3 3 3 3 3 3 3 3 4
11 10 10 9 9 8 8 8 8 7 7 8 8 7 7 6 6 6 5 5 4 4 4 5 4 4 3 4 5 4 4 4 4 3 3 2 3 3 3 3 4 4 4
12 11 10 9 9 9 8 9 8 7 7 8 7 7 7 7 7 6 5 5 5 5 5 5 5 5 5 6 6 5 4 4 4 4 3 3 3 3 3 3 3 4 4
12 11 10 10 9 8 8 8 7 8 8 8 8 7 7 7 7 7 6 6 5 5 5 5 5 5 5 6 6 6 5 4 4 3 3 3 3 3 3 3 3 4 4
12 11 10 10 9 8 7 7 8 8 8 9 9 8 8 8 8 8 7 6 6 6 6 5 5 5 5 6 7 6 4 4 4 3 3 3 3 3 3 3 3 4 4
11 11 10 9 9 8 6 8 9 9 10 10 9 8 8 8 8 8 7 6 6 6 5 5 5 5 5 6 7 6 4 4 3 3 3 4 4 4 4 4 4 4 4
12 11 10 9 9 8 7 9 9 10 10 8 8 8 8 8 8 7 6 6 6 6 5 5 5 5 5 5 7 7 5 4 4 3 3 3 4 5 4 4 4 4 4
12 11 10 10 9 8 8 10 11 10 7 7 8 8 8 7 6 7 6 6 6 6 6 5 5 4 5 6 6 8 7 6 5 4 3 3 4 4 4 4 3 3 3
13 11 11 11 10 8 9 11 11 8 7 8 8 8 8 7 7 8 8 7 7 6 6 6 5 5 4 5 7 8 8 7 5 4 4 4 4 4 4 3 3 3 2
13 11 11 12 11 10 9 11 9 7 8 9 8 8 8 8 8 7 7 7 7 7 7 7 6 5 5 5 5 5 5 6 5 4 4 5 5 3 3 3 2 2 2
13 11 11 12 13 11 10 9 8 8 9 9 8 8 8 8 8 8 7 8 8 8 8 7 7 6 6 6 7 6 5 5 4 4 3 3 3 3 2 2 2 2 2
13 12 12 12 12 11 11 9 8 9 9 8 8 7 7 7 7 7 6 7 7 8 9 7 7 6 6 7 9 9 7 7 7 5 4 4 4 4 4 3 3 2 2
Wind_Direction
245 236 230 232 242 250 255 262 271 271 268 262 259 253 254 256 254 262 268 261 254 244 237 240 238 229 221 220 215 210 207 215 218 226 233 235 233 234 234 230 228 226 226
244 233 223 221 234 244 250 265 269 269 262 255 263 262 267 261 260 269 271 265 255 248 240 235 238 231 224 222 216 211 210 212 209 222 230 238 229 226 231 230 230 229 220
239 230 225 225 232 242 245 253 264 268 264 256 253 259 259 262 256 258 261 268 259 246 241 240 240 234 228 224 218 213 211 211 212 219 225 229 237 238 222 228 228 229 229
238 237 233 232 233 242 248 252 255 258 259 253 241 245 248 252 260 265 262 263 261 253 242 241 240 238 230 225 222 219 220 215 213 217 231 244 255 236 239 222 223 233 240
241 243 240 238 240 241 244 248 248 249 250 250 248 250 254 257 263 265 263 262 260 258 253 241 237 238 232 225 220 215 217 219 217 215 216 226 235 240 243 252 242 242 241
250 250 246 241 240 235 238 243 241 243 244 244 244 250 257 257 255 258 260 261 259 256 254 245 234 233 230 226 221 215 213 214 216 216 216 219 221 225 235 250 257 258 257
258 253 247 241 240 239 238 239 241 242 239 241 244 249 256 255 251 253 253 254 252 250 250 245 240 235 229 225 221 215 214 214 213 213 219 224 228 231 235 243 254 265 273
273 263 253 245 242 242 240 240 241 242 239 240 243 247 249 250 251 251 252 252 252 251 252 247 243 241 233 224 219 216 216 217 217 217 218 222 225 226 229 233 239 258 262
283 272 260 252 249 246 243 240 241 244 242 242 244 248 249 248 250 251 250 251 251 251 247 245 242 236 227 221 215 215 213 213 215 216 217 221 224 228 231 236 235 238 255
295 283 266 257 254 251 247 244 242 242 245 244 243 244 246 249 250 250 247 245 245 240 238 237 235 228 220 214 213 212 210 207 211 211 210 214 224 222 226 231 242 242 247
298 288 273 262 255 252 248 244 243 242 242 243 243 243 245 246 246 245 244 240 238 234 232 228 228 224 220 216 211 210 204 204 205 205 210 217 222 222 227 234 240 245 248
297 289 279 267 256 250 246 243 243 242 243 244 245 246 244 242 243 243 241 236 233 229 226 223 223 222 221 219 214 208 206 206 204 205 208 216 215 221 228 231 239 249 255
299 293 282 268 261 256 250 245 244 242 242 242 243 244 239 237 242 241 236 230 227 224 220 219 218 219 219 219 217 212 209 209 207 204 206 211 209 219 228 236 246 255 263
299 293 286 274 265 258 252 248 246 240 237 236 237 238 234 232 233 235 229 224 222 220 220 220 223 223 222 218 215 209 205 206 208 206 207 212 213 218 224 237 248 257 262
304 297 289 282 272 263 254 247 246 239 232 231 232 232 229 227 225 225 223 217 215 218 218 217 218 217 216 212 204 200 201 199 200 198 204 209 209 217 225 232 241 247 253
303 299 292 285 276 265 256 248 245 239 232 231 231 229 222 219 220 219 218 215 211 209 209 212 209 208 211 195 198 200 198 197 195 195 200 198 193 199 216 235 251 259 257
299 298 293 285 278 269 257 248 243 236 231 232 230 226 221 218 218 215 213 216 213 208 209 213 210 210 205 197 200 195 193 192 194 197 200 201 200 203 218 231 248 264 269
300 297 293 288 282 274 261 250 241 233 231 229 227 221 217 217 215 212 213 215 213 210 210 211 212 213 204 192 190 187 196 199 201 204 208 213 215 212 228 250 263 272 275
297 292 289 285 279 272 263 250 239 233 232 230 225 219 214 214 211 211 212 210 207 207 206 205 207 209 206 190 188 189 195 200 205 206 212 218 228 211 220 244 261 274 282
296 292 290 284 274 268 256 245 241 235 234 230 227 220 213 212 213 212 209 206 205 207 202 204 207 210 213 192 192 196 201 203 206 206 210 214 226 226 224 239 250 263 277
295 291 286 279 273 268 250 245 245 241 238 231 224 219 214 214 213 208 204 200 199 200 203 207 208 211 210 202 200 204 204 203 206 210 214 214 212 232 237 246 252 262 282
293 290 285 280 276 264 247 247 248 247 238 225 222 218 214 210 205 201 198 197 196 199 204 205 209 211 208 210 206 207 211 208 210 215 219 219 212 230 239 247 250 266 280
289 287 282 281 278 263 244 247 251 244 230 221 221 220 213 209 204 201 196 195 197 201 206 206 209 208 204 202 204 208 207 207 215 217 211 215 218 233 243 235 236 251 261
286 284 280 277 276 269 253 248 249 236 223 223 222 216 212 209 204 203 199 199 200 203 206 208 210 208 203 201 197 199 200 198 207 209 195 198 211 222 225 222 231 252 262
283 279 274 273 273 272 264 254 242 227 222 223 221 215 211 208 205 206 206 206 210 210 206 207 205 202 208 203 193 193 196 194 192 183 192 201 206 211 219 233 245 256 266
282 278 273 270 270 268 263 254 237 222 218 219 218 214 209 205 205 204 209 211 215 211 214 214 206 207 204 185 190 198 198 192 182 184 200 207 214 220 225 233 241 248 259
Height
1497 1497 1496 1496 1496 1496 1497 1497 1497 1497 1497 1496 1496 1496 1497 1496 1497 1497 1497 1497 1498 1498 1499 1499 1500 1501 1502 1503 1504 1505 1506 1507 1509 1510 1510 1510 1511 1512 1512 1513 1513 1513 1513
1494 1494 1493 1493 1493 1493 1493 1493 1493 1493 1493 1493 1493 1493 1493 1493 1494 1494 1494 1494 1494 1494 1495 1495 1496 1497 1498 1499 1500 1501 1502 1503 1504 1506 1507 1507 1508 1507 1507 1508 1508 1508 1508
1491 1491 1490 1490 1490 1490 1490 1490 1490 1490 1490 1490 1490 1490 1490 1490 1490 1490 1490 1490 1490 1490 1491 1491 1492 1493 1494 1495 1496 1497 1498 1499 1500 1501 1503 1504 1503 1503 1503 1503 1503 1504 1504
1488 1488 1488 1487 1487 1487 1487 1487 1487 1487 1487 1487 1487 1486 1486 1486 1486 1486 1486 1486 1486 1486 1487 1487 1488 1489 1490 1491 1491 1492 1493 1494 1495 1496 1497 1499 1500 1500 1499 1499 1499 1499 1499
1485 1485 1484 1484 1484 1484 1484 1484 1484 1483 1483 1483 1483 1483 1483 1483 1483 1483 1482 1482 1482 1482 1483 1483 1484 1484 1485 1486 1487 1488 1489 1490 1490 1491 1492 1493 1495 1496 1496 1495 1495 1495 1495
1482 1482 1482 1481 1481 1481 1480 1480 1480 1480 1480 1480 1479 1479 1479 1479 1479 1478 1478 1478 1478 1478 1478 1479 1479 1480 1481 1481 1482 1483 1484 1485 1486 1487 1487 1489 1490 1490 1491 1491 1490 1490 1490
1479 1479 1478 1478 1478 1477 1477 1477 1476 1476 1476 1476 1476 1475 1475 1475 1475 1474 1474 1474 1474 1474 1474 1475 1475 1476 1476 1477 1478 1479 1480 1480 1481 1481 1483 1484 1485 1486 1486 1487 1486 1486 1485
1476 1476 1475 1475 1475 1474 1474 1473 1473 1473 1473 1472 1472 1472 1471 1471 1470 1470 1470 1470 1469 1470 1470 1471 1471 1471 1472 1473 1474 1474 1475 1476 1476 1477 1478 1479 1480 1481 1481 1482 1482 1481 1481
1474 1473 1473 1472 1472 1471 1471 1470 1469 1469 1469 1468 1468 1468 1467 1467 1466 1466 1466 1465 1465 1465 1466 1466 1466 1467 1467 1468 1469 1470 1471 1472 1472 1473 1474 1475 1475 1476 1477 1477 1478 1479 1477
1472 1471 1470 1469 1469 1468 1468 1467 1466 1466 1465 1465 1464 1464 1463 1463 1462 1462 1461 1461 1461 1461 1462 1462 1462 1463 1463 1464 1465 1466 1466 1467 1468 1468 1469 1470 1471 1471 1472 1472 1473 1473 1473
1469 1468 1467 1466 1465 1465 1464 1463 1463 1462 1462 1461 1461 1460 1459 1459 1458 1458 1458 1458 1458 1458 1458 1458 1459 1459 1460 1460 1461 1462 1462 1463 1464 1465 1465 1466 1467 1467 1468 1468 1468 1468 1468
1467 1465 1464 1462 1462 1461 1460 1459 1459 1458 1458 1457 1457 1456 1456 1455 1455 1454 1454 1454 1454 1454 1454 1455 1455 1456 1456 1457 1458 1458 1459 1460 1460 1461 1462 1462 1463 1463 1464 1464 1464 1464 1463
1463 1462 1460 1458 1458 1457 1456 1455 1455 1454 1454 1454 1453 1453 1452 1451 1451 1451 1451 1451 1451 1451 1451 1452 1452 1452 1453 1454 1454 1455 1455 1456 1457 1457 1458 1458 1459 1459 1460 1460 1460 1459 1459
1460 1458 1456 1455 1454 1453 1452 1451 1451 1450 1450 1449 1449 1449 1448 1448 1448 1448 1448 1447 1448 1448 1448 1448 1448 1449 1449 1450 1451 1451 1452 1452 1453 1453 1454 1455 1455 1456 1456 1456 1456 1455 1455
1457 1455 1453 1451 1450 1449 1448 1447 1447 1446 1446 1445 1445 1445 1445 1445 1444 1444 1444 1444 1444 1444 1445 1445 1445 1446 1446 1447 1447 1448 1448 1449 1449 1450 1450 1451 1452 1452 1452 1452 1452 1451 1451
1453 1451 1449 1447 1446 1445 1443 1442 1442 1442 1441 1441 1441 1441 1441 1441 1441 1441 1441 1441 1441 1441 1441 1441 1442 1442 1442 1443 1444 1444 1444 1445 1446 1446 1447 1447 1448 1448 1448 1448 1448 1448 1447
1450 1447 1445 1443 1442 1440 1439 1438 1437 1437 1437 1436 1436 1436 1436 1437 1437 1437 1437 1437 1437 1437 1437 1438 1438 1438 1439 1439 1440 1440 1441 1442 1442 1443 1443 1444 1444 1444 1444 1444 1444 1444 1443
1446 1443 1441 1439 1438 1436 1435 1433 1433 1432 1432 1432 1432 1432 1432 1432 1432 1433 1433 1433 1433 1433 1434 1434 1434 1435 1435 1436 1436 1437 1438 1438 1439 1440 1440 1440 1440 1441 1441 1440 1440 1439 1438
1442 1439 1437 1435 1433 1431 1430 1429 1428 1427 1427 1427 1427 1427 1427 1427 1428 1428 1428 1429 1429 1429 1430 1430 1430 1431 1431 1432 1433 1433 1434 1435 1435 1436 1436 1437 1437 1437 1437 1436 1435 1435 1434
1437 1434 1432 1429 1428 1427 1425 1424 1423 1422 1422 1422 1422 1422 1422 1423 1423 1423 1424 1424 1425 1425 1425 1426 1426 1427 1427 1428 1429 1430 1430 1431 1431 1432 1433 1433 1433 1433 1433 1432 1431 1430 1430
1432 1429 1427 1424 1422 1421 1420 1418 1417 1417 1417 1417 1417 1417 1417 1418 1418 1419 1419 1420 1421 1421 1421 1422 1422 1423 1424 1424 1425 1426 1427 1427 1427 1428 1429 1429 1429 1429 1429 1429 1428 1427 1426
1426 1424 1421 1418 1417 1416 1414 1412 1412 1412 1412 1411 1411 1412 1412 1412 1413 1414 1415 1415 1416 1416 1417 1418 1418 1419 1419 1420 1421 1422 1423 1423 1424 1424 1425 1425 1426 1426 1425 1425 1424 1424 1423
1420 1418 1415 1413 1411 1410 1408 1406 1406 1406 1405 1405 1405 1406 1406 1407 1407 1408 1409 1410 1411 1412 1412 1413 1414 1414 1415 1416 1417 1418 1419 1419 1420 1421 1421 1421 1422 1421 1421 1421 1420 1420 1419
1413 1411 1409 1406 1404 1403 1402 1400 1400 1400 1399 1399 1400 1400 1401 1401 1402 1403 1404 1405 1406 1407 1408 1409 1409 1410 1411 1412 1413 1414 1415 1415 1416 1417 1417 1417 1418 1417 1417 1417 1417 1416 1415
1406 1404 1402 1399 1397 1396 1395 1394 1394 1393 1393 1393 1394 1394 1395 1396 1396 1398 1399 1400 1401 1403 1404 1405 1406 1406 1407 1408 1409 1410 1410 1411 1412 1413 1413 1413 1414 1414 1414 1413 1413 1412 1412
1398 1396 1394 1392 1391 1389 1388 1388 1387 1387 1387 1387 1388 1388 1389 1390 1391 1392 1393 1395 1397 1398 1399 1400 1401 1402 1404 1404 1405 1406 1407 1408 1409 1409 1409 1409 1410 1410 1410 1409 1409 1408 1408